CAPE
464 606 898 904 903 674 737 727 761 802 750 782 728 740 560 596 599 628 326 620 931 885 1117 1087 1069 888 576 438 455 575 230 210 225
610 616 782 650 644 673 819 805 785 732 631 577 585 507 193 470 582 669 725 634 761 898 984 981 865 766 660 488 546 475 347 134 155
834 685 595 510 575 652 830 832 774 678 502 412 395 202 59 373 530 638 724 709 787 794 695 781 875 804 681 487 325 186 99 74 97
833 632 452 394 424 500 537 533 476 426 280 232 269 127 72 290 328 353 536 324 506 716 761 717 738 677 584 431 331 242 146 123 43
334 426 475 345 298 336 277 296 241 138 85 55 77 62 44 113 120 135 213 500 237 237 333 424 451 534 569 602 535 501 497 303 120
75 33 177 206 216 198 175 148 151 102 18 11 16 22 20 20 70 192 373 428 432 322 398 312 293 348 555 642 648 507 365 185 71
35 18 43 67 68 92 100 163 115 26 5 0 11 40 18 0 5 5 243 404 495 307 217 230 271 268 432 402 574 407 269 219 150
17 35 54 117 10 29 14 0 0 0 1 0 0 19 16 0 0 0 61 285 303 335 248 242 254 265 279 289 383 293 192 110 56
7 10 11 23 69 0 0 0 0 0 0 0 0 4 0 3 0 0 0 17 7 35 192 276 272 197 303 333 368 310 170 80 38
3 1 1 0 27 31 6 1 0 0 0 0 0 0 0 0 0 0 0 0 0 0 1 17 208 242 246 249 237 193 157 82 0
0 0 0 0 0 7 0 1 0 0 0 0 0 0 0 0 0 0 0 0 0 0 0 0 1 6 36 117 147 76 36 64 50
0 0 0 0 0 0 8 6 0 0 0 0 0 0 0 0 0 0 0 0 0 0 0 0 0 1 5 8 3 4 7 70 70
0 0 0 0 0 0 0 0 18 8 4 0 1 0 0 0 0 0 0 0 0 0 0 0 0 0 1 4 5 0 0 0 0
0 0 0 0 0 0 0 0 11 0 0 0 0 8 2 0 0 0 0 0 0 0 0 0 0 0 0 0 1 0 0 0 0
0 0 0 0 0 0 0 0 6 0 0 0 3 16 5 4 0 0 0 0 0 0 0 0 0 0 0 0 2 1 0 0 0
0 0 0 0 0 0 0 0 0 0 0 0 0 4 0 11 1 1 0 0 0 0 0 0 0 0 4 0 3 2 2 4 3
0 0 0 0 0 0 0 0 0 0 0 0 2 10 7 4 5 4 1 0 6 1 0 0 0 0 0 0 2 6 12 16 16
0 0 0 0 0 0 0 0 0 0 0 0 0 1 0 0 10 5 2 0 0 0 2 2 8 0 0 0 0 5 9 14 30
0 0 0 0 0 0 0 0 0 0 0 0 0 0 0 0 0 5 0 0 0 0 0 3 0 0 0 0 0 1 5 11 18
0 0 0 0 0 0 0 0 0 0 0 1 1 1 0 0 0 3 0 0 0 0 0 0 0 0 0 0 0 0 3 11 13
CIN
-5 -4 -3 0 -1 -7 -4 -7 -9 -6 -10 -8 -11 -22 -42 -35 -3 -1 -3 0 0 0 0 0 0 0 0 0 0 0 -10 -10 -9
-3 -14 -7 -5 -10 -20 0 -3 -5 -10 -14 -18 -20 -44 -98 -9 -8 -2 0 0 0 0 0 0 0 0 0 0 0 -2 -6 -21 -14
0 -1 -21 -67 -68 -52 -12 -1 -4 -8 -17 -29 -36 -76 -89 -3 -4 0 0 -4 0 0 -1 0 0 0 0 0 0 -7 -24 -25 -17
0 0 -1 -21 -17 -4 -1 0 -9 -16 -31 -33 -43 -68 -27 -7 -3 0 -2 -13 -8 -1 0 0 0 0 0 -2 -9 -9 -4 -7 -24
-4 -1 0 -4 -9 -6 -11 -11 -22 -46 -64 -77 -84 -89 -20 -8 -5 -7 -3 -5 -11 -15 -5 -7 0 0 -2 -1 0 0 0 0 -4
-18 -68 -6 -5 0 -4 -14 -17 -14 -32 -99 -145 -150 -39 -9 -10 -3 -3 -4 -4 -5 -7 -7 -17 -4 -5 -1 -2 -2 -2 -13 0 -22
-17 -46 -46 -18 -22 -20 -7 -6 -20 -118 -117 0 -183 -27 -4 0 -1 -15 -3 0 0 -4 -9 -13 -5 -4 -8 -7 -1 -3 0 0 -3
-2 -3 -5 -23 -4 -2 -9 0 0 0 -34 0 -20 -12 0 0 0 0 -3 0 0 0 -1 -2 -3 -2 -4 -5 -2 -1 -2 -7 -12
-4 -6 -10 -26 -1 0 0 -2 0 0 0 0 0 -81 -4 -5 0 0 0 -8 -12 -1 0 0 -3 -5 -2 -3 -4 0 -9 -8 -22
0 -1 0 0 -6 0 -5 -1 0 0 0 0 0 0 0 0 0 0 0 0 0 0 0 -1 0 0 0 -2 -6 -8 0 0 0
0 0 0 0 -1 -1 -5 -5 0 0 0 0 0 0 0 0 0 0 0 0 0 0 0 0 0 -1 -2 0 0 0 0 0 0
0 0 0 0 0 0 -18 -32 0 0 0 0 0 0 0 0 0 0 0 0 0 0 0 0 0 0 0 0 0 0 0 0 0
0 0 0 0 0 0 0 0 -1 -3 -1 -2 -2 0 0 0 0 0 0 0 0 0 0 0 0 0 0 0 0 0 0 0 0
0 0 0 0 0 0 0 -17 -21 0 0 0 0 -1 -3 -1 0 0 0 0 0 0 0 0 0 0 0 0 0 0 0 0 0
0 0 0 0 0 0 0 0 -3 0 0 0 0 -1 -1 -1 0 0 0 0 0 0 0 0 0 0 0 0 0 0 0 0 0
0 0 0 0 0 0 0 0 0 0 0 0 0 -7 0 -1 0 -1 0 0 0 0 0 0 0 0 -4 0 0 0 0 0 0
0 0 0 0 0 0 0 0 0 0 0 0 -2 0 -2 -2 -1 -1 -1 0 -3 -2 0 -1 0 0 -1 0 0 0 0 0 0
0 0 0 0 0 0 0 0 0 0 0 0 0 0 0 0 -4 -1 -6 0 0 0 -5 -3 -3 0 0 0 0 0 0 0 0
0 0 0 0 0 0 0 0 0 0 0 0 0 0 0 0 0 -2 0 0 0 0 0 -3 0 0 -1 0 0 0 0 0 0
0 0 0 0 0 0 0 0 0 0 0 0 0 0 0 0 0 0 0 0 0 0 0 0 0 0 0 0 0 0 0 0 0
Wind_Speed
14 12 16 15 16 18 17 14 14 13 13 14 11 9 9 6 7 10 10 11 12 14 15 15 16 16 16 15 14 14 15 15 16
13 15 15 15 17 19 18 16 14 14 14 14 13 13 12 7 8 9 9 10 12 13 14 15 14 14 14 14 13 14 15 14 15
14 16 17 20 21 20 18 15 14 14 16 16 14 12 11 8 10 10 8 8 11 11 12 13 14 14 14 13 13 13 12 13 13
16 16 15 15 15 14 13 13 15 17 16 13 11 10 9 9 9 10 6 7 10 11 11 12 13 13 13 12 12 11 11 11 11
15 12 13 15 13 13 13 14 15 15 15 15 12 8 11 13 10 9 8 8 6 11 10 13 13 13 10 10 9 10 12 13 11
12 11 13 13 12 12 12 11 8 10 11 15 14 10 8 11 9 8 12 12 11 8 10 14 10 9 8 8 8 11 12 10 10
7 7 9 7 6 8 10 9 13 9 8 7 10 6 10 9 9 8 15 15 16 13 10 10 9 7 7 9 9 13 11 10 9
3 4 4 5 8 4 7 8 8 10 8 8 7 8 8 6 7 12 19 20 18 16 15 12 10 9 10 10 9 11 10 9 8
9 6 6 7 4 6 6 5 8 9 11 9 9 9 8 5 5 9 16 18 20 21 20 17 10 10 8 8 11 9 11 8 7
6 6 6 6 7 6 5 6 6 6 7 6 7 7 7 8 4 4 13 14 17 19 19 20 20 15 14 9 10 10 8 6 6
7 6 6 7 7 6 7 6 6 6 5 5 7 6 5 7 7 4 5 11 15 18 18 18 19 18 19 23 15 9 7 5 5
8 6 7 6 6 8 5 4 4 4 4 5 6 5 6 6 6 5 4 4 11 15 16 17 17 17 17 18 16 18 21 13 8
9 7 7 7 6 6 5 6 3 4 5 5 3 4 5 5 5 5 5 4 4 10 14 15 16 17 17 17 17 17 18 17 17
9 8 8 8 6 6 6 5 5 5 4 4 3 3 4 4 5 5 5 5 5 5 8 10 13 15 17 18 19 19 18 18 18
10 9 10 9 7 8 7 8 6 6 6 5 3 2 2 4 5 6 6 7 8 7 8 6 6 11 17 20 21 20 19 19 18
12 9 10 9 9 10 10 8 6 7 8 4 4 5 4 5 5 6 6 7 7 7 7 6 5 5 16 23 25 24 22 20 19
12 11 10 11 8 11 12 11 6 6 8 5 5 1 4 4 5 5 6 9 6 7 7 7 8 7 8 18 25 25 24 22 21
12 12 11 10 9 8 10 10 11 6 7 10 5 2 3 6 3 3 6 8 6 8 9 9 7 10 10 13 18 25 24 23 23
11 11 11 11 8 10 9 9 8 8 7 3 7 7 6 4 3 1 9 8 9 8 8 8 10 11 10 15 22 24 23 23 23
10 10 11 10 8 9 11 11 11 8 7 7 6 5 5 7 3 4 8 7 9 8 6 7 8 11 10 9 16 23 23 24 25
Wind_Direction
57 62 69 53 57 48 36 43 61 60 63 67 53 30 347 323 86 84 71 76 80 78 81 84 88 89 86 84 83 83 77 73 70
61 57 58 57 54 52 43 50 55 54 57 56 40 18 350 57 69 80 81 89 83 78 82 85 83 88 88 81 75 75 74 71 72
67 63 49 42 40 40 42 46 51 60 56 47 33 21 2 67 69 70 73 55 82 85 83 84 84 82 79 78 73 70 73 73 71
62 62 63 58 57 61 63 70 62 57 51 41 22 13 22 56 52 63 51 67 88 72 75 76 84 85 83 82 85 84 78 75 69
37 62 53 66 55 56 65 67 67 63 52 28 357 341 42 49 37 49 35 52 97 110 81 67 69 78 80 79 76 77 67 65 68
69 47 48 55 65 60 54 60 71 74 64 27 354 40 51 52 47 26 25 48 57 90 108 100 80 69 73 86 95 84 71 65 62
99 101 94 86 89 93 66 29 64 42 52 34 4 48 64 61 50 24 31 49 54 59 76 85 82 57 65 70 78 78 71 67 65
32 64 50 66 34 42 68 58 51 56 51 52 36 35 57 68 64 24 28 50 51 50 48 51 71 75 76 86 81 80 74 64 59
30 32 17 9 68 44 46 79 72 62 55 44 52 41 42 41 71 50 26 48 52 46 46 42 37 47 50 87 84 75 71 56 52
35 36 32 8 5 42 42 54 61 77 66 80 60 51 41 51 44 62 48 37 52 50 47 44 47 39 35 36 69 60 58 54 49
34 31 32 26 9 19 34 33 41 50 38 55 69 60 50 48 43 44 63 55 52 51 45 45 44 46 45 43 38 35 34 29 28
34 34 30 29 25 357 3 50 56 77 62 49 34 40 58 34 39 37 41 27 72 56 46 44 43 43 45 49 36 31 33 21 355
36 36 29 15 30 11 13 351 44 8 28 21 22 31 39 44 33 55 37 26 3 74 51 47 42 40 40 37 40 36 25 22 19
32 33 25 21 24 24 17 19 30 25 11 354 2 53 45 28 53 44 76 71 40 30 66 81 58 44 42 36 34 30 26 15 10
21 25 23 24 30 25 17 15 23 20 358 334 7 37 66 66 49 60 67 47 41 45 41 38 66 63 47 37 31 26 20 13 8
25 23 23 17 29 25 20 1 21 32 356 352 330 97 96 47 63 70 62 59 70 54 41 42 30 33 53 47 30 23 17 13 10
32 25 27 23 24 28 24 22 351 42 23 359 297 135 141 51 87 79 61 37 34 32 44 45 38 26 50 47 28 20 16 12 9
30 32 31 31 29 29 26 21 24 4 32 36 356 336 360 331 124 100 79 39 16 5 11 28 39 36 55 42 21 16 14 11 7
31 30 36 38 35 33 27 26 32 19 30 32 15 40 24 357 321 36 66 20 28 4 4 11 43 40 33 43 18 9 8 5 2
37 33 34 37 32 34 33 33 34 32 36 44 12 17 54 27 339 312 355 359 1 11 334 43 37 37 30 23 10 2 6 4 356